Location: Litvinovka
(48.6667°N, 34.3500°E)
Time: 19:24:57
(UTC+00:00)

CZ-2C R/B - Pass Details

Date: 18 September 2020
Orbit: 640 x 704 km, 98.4° (Epoch: 21 October)

Event Time Altitude Azimuth Distance (km) Brightness Sun altitude
Rises 18:20:21 0° 13° (NNE) 2,961 7.3 -24.4°
Reaches altitude 10° 18:22:33 10° 12° (NNE) 2,050 6.5 -24.7°
Maximum altitude 18:27:01 78° 286° (WNW) 669 3.7 -25.3°
Enters shadow 18:27:18 74° 244° (WSW) 680 3.7 -25.4°
